Quillayute, WA

7:59 AM PDT on May 27, 2017 (GMT -0700)
Quillayute

Weather History for KUIL - May, 2014

Change the Weather History Date:

Wednesday, May 14, 2014

  Actual Average Record
Temperature  
Mean Temperature 65 °F 51 °F  
Max Temperature 83 °F 59 °F 83 °F (2014)
Min Temperature 47 °F 43 °F 33 °F (2007)
Degree Days  
Heating Degree Days 0 14  
Month to date heating degree days 154 211  
Since 1 July heating degree days 4436 5253  
Cooling Degree Days 0 0  
Month to date cooling degree days 2 0  
Year to date cooling degree days 4 0  
Growing Degree Days 14 (Base 50)    
Moisture  
Dew Point 49 °F    
Average Humidity 60    
Maximum Humidity 86    
Minimum Humidity 33    
Precipitation  
Precipitation 0.00 in 0.16 in 2.00 in (2001)
Month to date precipitation 3.16 2.52  
Year to date precipitation 51.44 46.16  
Sea Level Pressure  
Sea Level Pressure 30.22 in    
Wind  
Wind Speed 5 mph (NNW)    
Max Wind Speed 13 mph    
Max Gust Speed 17 mph    
Visibility 7 miles    
Events      
T = Trace of Precipitation, MM = Missing Value Source: NWS Daily Summary

Daily Weather History Graph

Daily Weather History Graph

Search for Another Location

Airport or City:

Trip Planner

Search our weather history database for the weather conditions in past years. The results will help you decide how hot, cold, wet, or windy it might be!

Date:

Astronomy

May. 14, 2014 Rise Set
Actual Time 5:40 AM PDT 8:49 PM PDT
Civil Twilight 5:04 AM PDT 9:26 PM PDT
Nautical Twilight 4:16 AM PDT 10:14 PM PDT
Astronomical Twilight 3:16 AM PDT 11:14 PM PDT
Moon 8:58 PM PDT (5/14) 5:47 AM PDT (5/14)
Length of Visible Light 16h 22m
Length of Day
15h 08m
Full, 100% of the Moon is Illuminated
May 14
Full
May 14
Full
May 21
Last Quarter
May 28
New
Jun 5
First Quarter

Hourly Weather History & Observations

Time (PDT) Temp. Dew Point Humidity Pressure Visibility Wind Dir Wind Speed Gust Speed Precip Events Conditions
12:53 AM 55.9 °F 44.1 °F 64% 30.32 in 8.0 mi ENE 3.5 mph - N/A   Clear
1:53 AM 53.6 °F 44.6 °F 72% 30.31 in 8.0 mi ENE 3.5 mph - N/A   Clear
2:53 AM 50.0 °F 45.0 °F 83% 30.31 in 8.0 mi NE 3.5 mph - N/A   Clear
3:53 AM 50.0 °F 46.0 °F 86% 30.30 in 8.0 mi Calm Calm - N/A   Clear
4:53 AM 48.0 °F 45.0 °F 89% 30.30 in 8.0 mi Calm Calm - N/A   Clear
5:53 AM 48.0 °F 45.0 °F 89% 30.29 in 6.0 mi Calm Calm - N/A   Clear
6:53 AM 51.1 °F 46.9 °F 86% 30.30 in 6.0 mi Calm Calm - N/A   Clear
7:53 AM 57.2 °F 48.2 °F 72% 30.29 in 7.0 mi Calm Calm - N/A   Clear
8:53 AM 64.0 °F 52.0 °F 65% 30.28 in 7.0 mi Calm Calm - N/A   Clear
9:53 AM 70.0 °F 52.0 °F 53% 30.27 in 7.0 mi Calm Calm - N/A   Clear
10:53 AM 75.9 °F 51.1 °F 42% 30.27 in 6.0 mi Calm Calm - N/A   Haze
11:53 AM 75.9 °F 54.0 °F 46% 30.25 in 6.0 mi WSW 9.2 mph - N/A   Haze
12:53 PM 73.9 °F 50.0 °F 43% 30.24 in 6.0 mi WSW 11.5 mph - N/A   Haze
1:53 PM 77.0 °F 52.0 °F 42% 30.22 in 7.0 mi West 10.4 mph - N/A   Clear
2:53 PM 80.1 °F 48.9 °F 34% 30.21 in 7.0 mi WNW 10.4 mph - N/A   Clear
3:53 PM 80.1 °F 48.0 °F 32% 30.19 in 7.0 mi NW 11.5 mph - N/A   Clear
4:53 PM 82.0 °F 50.0 °F 33% 30.17 in 7.0 mi NW 6.9 mph - N/A   Clear
5:53 PM 82.0 °F 50.0 °F 33% 30.14 in 7.0 mi North 8.1 mph - N/A   Clear
6:53 PM 80.1 °F 50.0 °F 35% 30.12 in 7.0 mi NW 8.1 mph - N/A   Clear
7:53 PM 75.9 °F 48.9 °F 38% 30.11 in 7.0 mi North 8.1 mph - N/A   Clear
8:53 PM 71.1 °F 50.0 °F 47% 30.10 in 7.0 mi North 9.2 mph - N/A   Clear
9:53 PM 69.1 °F 48.0 °F 47% 30.11 in 8.0 mi North 9.2 mph - N/A   Clear
10:53 PM 66.9 °F 48.0 °F 51% 30.10 in 8.0 mi NNE 6.9 mph - N/A   Clear
11:53 PM 60.1 °F 48.9 °F 67% 30.09 in 8.0 mi NE 3.5 mph - N/A   Clear